Tracking 25711 objects as of 22-May-2022
HD Live streaming from Space Station
objects crossing your sky now

COSMOS 1806

Track COSMOS 1806 now!
COSMOS 1806 is classified as:


NORAD ID: 17213
Int'l Code: 1986-098A
Perigee: 7,245.2 km
Apogee: 33,153.7 km
Inclination: 68.6 °
Period: 718.4 minutes
Semi major axis: 26570 km
RCS: 14.9345 m2 (large)
Launch date: December 12, 1986
Source: Commonwealth of Independent States (former USSR) (CIS)
Launch site: PLESETSK MISSILE AND SPACE COMPLEX (PKMTR)
aabbcc
Your satellite tracking list
Your tracking list is empty




NASA's NSSDC Master Catalog

Two Line Element Set (TLE):
1 17213U 86098A   22141.48772174  .00000063  00000-0  00000-0 0  9994
2 17213  68.6429 204.6298 4875432 117.4804 301.5681  2.00449406259470
Source of the keplerian elements: AFSPC